Location: Augirein
(42.9320°N, 0.9181°E)
Time: 17:18:50
(UTC+00:00)

Cosmos 1076 Rocket - Pass Details

Date: 20 June 2021
Orbit: 590 x 612 km, 82.5° (Epoch: 04 August)

Event Time Altitude Azimuth Distance (km) Brightness Sun altitude
Exits shadow 01:49:44 45° 216° (SW) 815 3.7 -18.8°
Maximum altitude 01:50:53 66° 279° (W) 646 3.5 -18.7°
Drops below altitude 10° 01:55:08 10° 3° (N) 1,930 7.1 -18.4°
Sets 01:57:22 0° 6° (N) 2,838 8.2 -18.2°
